Regional Weather Roundup
Issued by NWS

Home | Current Version | Previous Version | Graphics & Text | Print | Product List | Glossary On
Versions: 1 2 3 4 5 6 7 8 9 10 11 12 13 14 15 16 17 18 19 20 21 22 23 24 25 26 27 28 29 30 31 32 33 34 35 36 37 38 39 40 41 42 43 44 45 46 47 48 49 50
000
ASUS43 KDMX 291103
RWRIA

WEATHER ROUNDUP FOR IOWA
NATIONAL WEATHER SERVICE DES MOINES IA
600 AM CDT FRI APR 29 2016

NOTE: "FAIR" INDICATES FEW OR NO CLOUDS BELOW 12,000 FEET WITH NO
SIGNIFICANT WEATHER AND/OR OBSTRUCTIONS TO VISIBILITY.

* - THESE STATIONS ARE NOT NWS STATIONS...THUS NOT UNDER NWS
QUALITY CONTROL.  THEY ALSO DO NOT REPORT WEATHER SUCH
AS PRECIPITATION OR FOG.

IAZ001>003-012>014-020>022-031>034-043>046-291200-
   NORTHWEST IOWA

CITY           SKY/WX    TMP DP  RH WIND       PRES   REMARKS
CARROLL *      CLOUDY    43  41  93 N5        30.12S
CHEROKEE *     CLOUDY    40  40 100 NE3       30.13F FOG
DENISON *      CLOUDY    43  41  93 E3        30.10F
LE MARS *      CLOUDY    41  39  93 N5        30.14S
ORANGE CITY *  CLOUDY    39  37  93 CALM      30.13R
SHELDON *      CLOUDY    39  39 100 CALM      30.12S
SIOUX CITY     CLOUDY    43  39  86 NE3       30.13F
SPENCER        CLOUDY    40  37  89 CALM      30.14R
STORM LAKE *   CLOUDY    41  39  93 N6        30.12F
$$

IAZ055>058-069>071-079>083-090>094-291200-
   SOUTHWEST IOWA

CITY           SKY/WX    TMP DP  RH WIND       PRES   REMARKS
ATLANTIC *     CLOUDY    43  43 100 N7        30.09F
AUDUBON *      CLOUDY    43  39  87 N5        30.11F
CLARINDA *       N/A    N/A N/A N/A MISG        N/A
COUNCIL BLFS * CLOUDY    43  43 100 N3        30.10F
CRESTON *      CLOUDY    45  43  93 N12       30.08F
HARLAN  *      CLOUDY    43  41  93 N6        30.13F
LAMONI         CLOUDY    45  42  89 N13       30.03F
RED OAK *      CLOUDY    45  43  93 N10       30.09F
SHENANDOAH *   CLOUDY    46  45  93 N12       30.08F
$$

IAZ047>049-059>061-072>074-084-291200-
   CENTRAL IOWA

CITY           SKY/WX    TMP DP  RH WIND       PRES   REMARKS
AMES           CLOUDY    44  42  93 N6        30.11F
ANKENY *       CLOUDY    45  45 100 N9        30.10F
BOONE *        CLOUDY    43  43 100 N6        30.11S
CHARITON *     CLOUDY    46  45  93 N7        30.07F
DES MOINES     CLOUDY    47  42  83 N9        30.10S
GRINNELL*      CLOUDY    45  43  93 N6        30.11S FOG
KNOXVILLE *    CLOUDY    46  45  93 NW6       30.07F
MARSHALLTOWN   CLOUDY    43  42  97 N5        30.12S
NEWTON *       CLOUDY    45  45 100 N9        30.09F
PELLA *        CLOUDY    46  45  94 NE6       30.10F
$$

IAZ004>006-015-016-023>025-035-036-291200-
   NORTH CENTRAL IOWA

CITY           SKY/WX    TMP DP  RH WIND       PRES   REMARKS
ALGONA *       CLOUDY    41  39  93 NE5       30.14R
CLARION *      CLOUDY    41  41 100 N6        30.12R
ESTHERVILLE    CLOUDY    39  37  92 NE9       30.13R WCI  33
FORT DODGE *   CLOUDY    41  36  81 CALM      30.13R
MASON CITY     CLOUDY    40  40 100 NE10      30.14R WCI  33
FOREST CITY *  CLOUDY    37  37 100 N8        30.12F FOG     WCI  31
WEBSTER CITY * CLOUDY    43  43 100 N6        30.11R
IOWA FALLS *   CLOUDY    43  41  93 CALM      30.12S
$$

IAZ007>011-017>019-026>030-037>042-050>054-066-291200-
   NORTHEAST IOWA

CITY           SKY/WX    TMP DP  RH WIND       PRES   REMARKS
CEDAR RAPIDS   CLOUDY    43  43 100 NW3       30.10S
CHARLES CITY * CLOUDY    41  41 100 N7        30.13S
CLINTON *      CLOUDY    42  41  96 NW5       30.11R FOG
DECORAH *      CLOUDY    39  39 100 N8        30.11S WCI  34
DUBUQUE        CLOUDY    40  39  97 N7        30.10R
MONTICELLO *   CLOUDY    43  39  87 N5        30.11R
OELWEIN *      CLOUDY    41  41 100 NE9       30.12S
WATERLOO       CLOUDY    42  39  89 N6        30.11S
$$

IAZ064-065-067-068-078-291200-
   EAST CENTRAL IOWA

CITY           SKY/WX    TMP DP  RH WIND       PRES   REMARKS
DAVENPORT      CLOUDY    43  41  93 N7        30.11R
IOWA CITY      CLOUDY    45  42  89 N7        30.12F
MT. PLEASANT * CLOUDY    50  50 100 N10       30.08F FOG
MUSCATINE *    CLOUDY    46  45  93 N9        30.11F FOG
QUAD CITIES    CLOUDY    46  42  86 NW7       30.10R FOG
$$

IAZ062-063-075>077-085>089-095>099-291200-
   SOUTHEAST IOWA

CITY           SKY/WX    TMP DP  RH WIND       PRES   REMARKS
BURLINGTON     CLOUDY    48  47  96 N9        30.06F FOG
FAIRFIELD *    CLOUDY    46  45  93 N9        30.08F
FORT MADISON * CLOUDY    48  46  93 N10       30.08S FOG
KEOKUK *       CLOUDY    50  48  93 N9        30.07S
OSKALOOSA *    CLOUDY    46  45  93 NE7       30.09F FOG
OTTUMWA        CLOUDY    47  45  93 NE8       30.08F
WASHINGTON *   CLOUDY    46  46 100 N9        30.10F FOG
$$

ABBREVIATIONS USED IN REMARKS
   TC - TEMPERATURES IN CELSIUS
  WCI - WIND CHILL INDEX
   HX - HEAT INDEX
  VSB - VISIBILITY
$$





USA.gov is the U.S. government's official web portal to all federal, state and local government web resources and services.